Terminal Aerodrome Forecast
Issued by NWS Blacksburg, VA

Current Version | Previous Version | Text Only | Print | Product List | Glossary Off
Versions: 1 2 3 4 5 6 7 8 9 10 11 12 13 14 15 16 17 18 19 20 21 22 23 24 25 26 27 28 29 30 31 32

884
FTUS41 KRNK 121123
TAFBLF
TAF
KBLF 121123Z 1212/1312 28011G21KT P6SM BKN080
     FM121400 28012G21KT P6SM OVC030
     FM121500 29013G23KT P6SM OVC015
      TEMPO 1216/1219 2SM -SHSN BLSN OVC007
     FM122200 29014G24KT 4SM -SHSN BKN025
     FM130000 30016G25KT P6SM OVC030
     FM130400 29017G28KT P6SM BKN035
     FM130600 30016G25KT P6SM SCT045=

USA.gov is the U.S. government's official web portal to all federal, state and local government web resources and services.